Time,TemperatureF,DewpointF,PressureIn,WindDirection,WindDirectionDegrees,WindSpeedMPH,WindSpeedGustMPH,Humidity,HourlyPrecipIn,Conditions,Clouds,dailyrainin,SoftwareType,DateUTC
2013-07-07 00:00:00,74.3,64.5,29.90,SW,225,0.4,0.4,71,0.00,,,0.00,WUHU216HW,2013-07-07 04:00:00,
2013-07-07 00:01:00,74.3,64.5,29.90,WSW,248,1.1,1.1,71,0.00,,,0.00,WUHU216HW,2013-07-07 04:01:00,
2013-07-07 00:02:00,74.3,64.5,29.90,WSW,248,1.1,1.3,71,0.00,,,0.00,WUHU216HW,2013-07-07 04:02:00,
2013-07-07 00:07:00,74.3,64.5,29.89,WSW,248,1.1,1.6,71,0.00,,,0.00,WUHU216HW,2013-07-07 04:07:00,
2013-07-07 00:12:00,74.3,64.5,29.89,WSW,248,0.9,1.6,71,0.00,,,0.00,WUHU216HW,2013-07-07 04:12:00,
2013-07-07 00:17:00,74.3,64.9,29.89,WSW,248,1.3,1.8,72,0.00,,,0.00,WUHU216HW,2013-07-07 04:17:00,
2013-07-07 00:22:00,74.3,64.9,29.89,WSW,248,1.3,1.8,72,0.00,,,0.00,WUHU216HW,2013-07-07 04:22:00,
2013-07-07 00:59:00,72.8,64.2,29.91,West,270,2.2,2.2,74,0.00,,,0.00,WUHU216HW,2013-07-07 04:59:00,
2013-07-07 01:04:00,72.5,64.3,29.90,West,270,3.6,4.3,75,0.00,,,0.00,WUHU216HW,2013-07-07 05:04:00,
2013-07-07 01:10:00,72.1,63.9,29.90,WNW,293,3.8,4.7,75,0.00,,,0.00,WUHU216HW,2013-07-07 05:10:00,
2013-07-07 01:15:00,72.1,63.9,29.89,West,270,4.5,4.7,75,0.00,,,0.00,WUHU216HW,2013-07-07 05:15:00,
2013-07-07 01:20:00,72.1,63.9,29.89,West,270,4.5,4.5,75,0.00,,,0.00,WUHU216HW,2013-07-07 05:20:00,
2013-07-07 02:00:00,70.5,63.1,29.91,WSW,248,1.8,1.8,77,0.00,,,0.00,WUHU216HW,2013-07-07 06:00:00,
2013-07-07 02:05:00,70.3,63.2,29.89,WSW,248,4.0,4.7,78,0.00,,,0.00,WUHU216HW,2013-07-07 06:05:00,
2013-07-07 02:10:00,70.5,63.1,29.89,WNW,293,4.7,5.1,77,0.00,,,0.00,WUHU216HW,2013-07-07 06:10:00,
2013-07-07 02:15:00,70.5,63.1,29.89,WNW,293,5.6,5.6,77,0.00,,,0.00,WUHU216HW,2013-07-07 06:15:00,
2013-07-07 02:20:00,70.5,63.1,29.89,WSW,248,4.5,5.6,77,0.00,,,0.00,WUHU216HW,2013-07-07 06:20:00,
2013-07-07 02:25:00,70.5,63.1,29.89,WSW,248,4.5,5.6,77,0.00,,,0.00,WUHU216HW,2013-07-07 06:25:00,
2013-07-07 03:00:00,70.0,61.8,29.90,WNW,293,0.0,0.0,75,0.00,,,0.00,WUHU216HW,2013-07-07 07:00:00,
2013-07-07 03:05:00,70.0,62.2,29.89,West,270,0.9,1.3,76,0.00,,,0.00,WUHU216HW,2013-07-07 07:05:00,
2013-07-07 03:10:00,70.0,62.6,29.88,West,270,1.6,2.0,77,0.00,,,0.00,WUHU216HW,2013-07-07 07:10:00,
2013-07-07 03:15:00,69.8,62.0,29.88,WNW,293,0.9,2.0,76,0.00,,,0.00,WUHU216HW,2013-07-07 07:15:00,
2013-07-07 03:20:00,69.8,62.0,29.88,WNW,293,0.9,1.8,76,0.00,,,0.00,WUHU216HW,2013-07-07 07:20:00,
2013-07-07 04:00:00,69.6,61.8,29.89,WNW,293,0.9,0.9,76,0.00,,,0.00,WUHU216HW,2013-07-07 08:00:00,
2013-07-07 04:05:00,69.8,62.0,29.88,West,270,1.8,2.7,76,0.00,,,0.00,WUHU216HW,2013-07-07 08:05:00,
2013-07-07 04:10:00,69.8,62.0,29.88,WNW,293,1.8,2.7,76,0.00,,,0.00,WUHU216HW,2013-07-07 08:10:00,
2013-07-07 04:15:00,69.6,61.8,29.88,West,270,1.6,2.0,76,0.00,,,0.00,WUHU216HW,2013-07-07 08:15:00,
2013-07-07 04:20:00,69.6,61.8,29.88,WSW,248,1.8,2.0,76,0.00,,,0.00,WUHU216HW,2013-07-07 08:20:00,
2013-07-07 04:25:00,69.6,61.8,29.88,WSW,248,1.8,1.8,76,0.00,,,0.00,WUHU216HW,2013-07-07 08:25:00,
2013-07-07 04:59:00,68.3,61.6,29.90,West,270,2.7,2.7,79,0.00,,,0.00,WUHU216HW,2013-07-07 08:59:00,
2013-07-07 05:04:00,68.5,61.5,29.88,West,270,2.2,3.4,78,0.00,,,0.00,WUHU216HW,2013-07-07 09:04:00,
2013-07-07 05:10:00,68.5,61.5,29.88,West,270,1.8,3.4,78,0.00,,,0.00,WUHU216HW,2013-07-07 09:10:00,
2013-07-07 05:15:00,68.5,61.5,29.88,West,270,2.5,3.1,78,0.00,,,0.00,WUHU216HW,2013-07-07 09:15:00,
2013-07-07 05:20:00,68.5,61.5,29.88,West,270,2.5,3.1,78,0.00,,,0.00,WUHU216HW,2013-07-07 09:20:00,
2013-07-07 05:25:00,68.3,61.3,29.88,WSW,248,2.2,2.9,78,0.00,,,0.00,WUHU216HW,2013-07-07 09:25:00,
2013-07-07 05:30:00,68.3,61.6,29.88,West,270,2.5,2.9,79,0.00,,,0.00,WUHU216HW,2013-07-07 09:30:00,
2013-07-07 05:35:00,68.3,61.6,29.88,West,270,2.2,3.1,79,0.00,,,0.00,WUHU216HW,2013-07-07 09:35:00,
2013-07-07 05:40:00,68.3,61.6,29.88,WSW,248,2.0,3.1,79,0.00,,,0.00,WUHU216HW,2013-07-07 09:40:00,
2013-07-07 05:45:00,68.5,61.5,29.88,WSW,248,2.9,3.6,78,0.00,,,0.00,WUHU216HW,2013-07-07 09:45:00,
2013-07-07 05:50:00,68.9,61.5,29.88,WSW,248,4.0,4.0,77,0.00,,,0.00,WUHU216HW,2013-07-07 09:50:00,
2013-07-07 05:55:00,69.1,61.7,29.88,WSW,248,2.7,4.0,77,0.00,,,0.00,WUHU216HW,2013-07-07 09:55:00,
2013-07-07 06:00:00,69.2,61.8,29.88,WNW,293,1.8,4.0,77,0.00,,,0.00,WUHU216HW,2013-07-07 10:00:00,
2013-07-07 06:05:00,69.4,62.0,29.88,WNW,293,2.9,2.9,77,0.00,,,0.00,WUHU216HW,2013-07-07 10:05:00,
2013-07-07 06:10:00,69.3,61.9,29.88,West,270,3.4,4.3,77,0.00,,,0.00,WUHU216HW,2013-07-07 10:10:00,
2013-07-07 06:15:00,69.5,62.1,29.88,WNW,293,3.4,4.3,77,0.00,,,0.00,WUHU216HW,2013-07-07 10:15:00,
2013-07-07 06:20:00,69.5,62.1,29.88,West,270,3.1,4.0,77,0.00,,,0.00,WUHU216HW,2013-07-07 10:20:00,
2013-07-07 06:25:00,70.0,62.6,29.88,NNW,338,2.0,4.0,77,0.00,,,0.00,WUHU216HW,2013-07-07 10:25:00,
2013-07-07 06:30:00,70.2,62.8,29.88,West,270,1.8,3.4,77,0.00,,,0.00,WUHU216HW,2013-07-07 10:30:00,
2013-07-07 06:35:00,70.2,62.8,29.88,West,270,1.8,2.9,77,0.00,,,0.00,WUHU216HW,2013-07-07 10:35:00,
2013-07-07 06:59:00,72.5,63.2,29.90,NNW,338,4.0,4.0,72,0.00,,,0.00,WUHU216HW,2013-07-07 10:59:00,
2013-07-07 07:05:00,73.0,63.2,29.89,West,270,1.6,4.0,71,0.00,,,0.00,WUHU216HW,2013-07-07 11:05:00,
2013-07-07 07:10:00,73.7,64.3,29.89,NNW,338,1.1,4.0,72,0.00,,,0.00,WUHU216HW,2013-07-07 11:10:00,
2013-07-07 07:15:00,74.4,63.8,29.89,West,270,3.6,4.7,69,0.00,,,0.00,WUHU216HW,2013-07-07 11:15:00,
2013-07-07 07:20:00,74.9,64.2,29.89,WNW,293,2.2,4.7,69,0.00,,,0.00,WUHU216HW,2013-07-07 11:20:00,
2013-07-07 07:25:00,75.1,64.9,29.89,West,270,3.1,4.0,70,0.00,,,0.00,WUHU216HW,2013-07-07 11:25:00,
2013-07-07 07:30:00,75.6,64.5,29.89,West,270,3.8,5.6,68,0.00,,,0.00,WUHU216HW,2013-07-07 11:30:00,
2013-07-07 07:35:00,75.9,63.9,29.88,West,270,2.9,5.6,66,0.00,,,0.00,WUHU216HW,2013-07-07 11:35:00,
2013-07-07 07:40:00,75.9,64.0,29.88,NW,315,4.7,4.7,66,0.00,,,0.00,WUHU216HW,2013-07-07 11:40:00,
2013-07-07 07:45:00,75.9,64.0,29.88,West,270,2.9,5.8,66,0.00,,,0.00,WUHU216HW,2013-07-07 11:45:00,
2013-07-07 07:50:00,76.2,64.2,29.88,WSW,248,4.3,5.8,66,0.00,,,0.00,WUHU216HW,2013-07-07 11:50:00,
2013-07-07 07:55:00,76.2,64.2,29.88,West,270,2.2,4.5,66,0.00,,,0.00,WUHU216HW,2013-07-07 11:55:00,
2013-07-07 08:00:00,76.5,64.1,29.88,WNW,293,3.8,4.5,65,0.00,,,0.00,WUHU216HW,2013-07-07 12:00:00,
2013-07-07 08:05:00,76.8,63.4,29.88,NW,315,5.8,5.8,63,0.00,,,0.00,WUHU216HW,2013-07-07 12:05:00,
2013-07-07 08:10:00,77.3,63.5,29.87,West,270,3.4,5.8,62,0.00,,,0.00,WUHU216HW,2013-07-07 12:10:00,
2013-07-07 08:15:00,77.9,63.6,29.87,WNW,293,3.6,6.0,61,0.00,,,0.00,WUHU216HW,2013-07-07 12:15:00,
2013-07-07 08:20:00,78.7,63.8,29.34,WSW,248,3.6,6.0,60,0.00,,,0.00,WUHU216HW,2013-07-07 12:20:00,
2013-07-07 08:25:00,78.5,63.2,29.70,NW,315,6.9,7.2,59,0.00,,,0.00,WUHU216HW,2013-07-07 12:25:00,
2013-07-07 08:30:00,78.2,63.4,29.82,West,270,5.8,7.6,60,0.00,,,0.00,WUHU216HW,2013-07-07 12:30:00,
2013-07-07 08:34:00,78.6,63.2,29.81,WNW,293,4.0,7.6,59,0.00,,,0.00,WUHU216HW,2013-07-07 12:34:00,
2013-07-07 08:40:00,78.6,63.3,29.65,West,270,6.9,6.9,59,0.00,,,0.00,WUHU216HW,2013-07-07 12:40:00,
2013-07-07 08:45:00,78.6,63.3,29.65,West,270,6.9,6.9,59,0.00,,,0.00,WUHU216HW,2013-07-07 12:45:00,
2013-07-07 08:59:00,80.0,63.6,29.90,West,270,3.6,3.6,57,0.00,,,0.00,WUHU216HW,2013-07-07 12:59:00,
2013-07-07 09:04:00,80.0,63.1,29.89,WNW,293,5.1,5.4,56,0.00,,,0.00,WUHU216HW,2013-07-07 13:04:00,
2013-07-07 09:10:00,80.2,63.8,29.88,WNW,293,4.3,5.6,57,0.00,,,0.00,WUHU216HW,2013-07-07 13:10:00,
2013-07-07 09:15:00,80.4,63.4,29.88,NW,315,4.7,6.7,56,0.00,,,0.00,WUHU216HW,2013-07-07 13:15:00,
2013-07-07 09:20:00,81.3,64.3,29.88,WNW,293,4.7,6.7,56,0.00,,,0.00,WUHU216HW,2013-07-07 13:20:00,
2013-07-07 09:25:00,82.4,64.8,29.88,ENE,68,1.8,5.4,55,0.00,,,0.00,WUHU216HW,2013-07-07 13:25:00,
2013-07-07 09:30:00,83.0,65.4,29.88,NW,315,6.0,6.0,55,0.00,,,0.00,WUHU216HW,2013-07-07 13:30:00,
2013-07-07 09:35:00,83.0,65.4,29.88,NW,315,6.0,6.0,55,0.00,,,0.00,WUHU216HW,2013-07-07 13:35:00,
2013-07-07 10:00:00,83.7,63.8,29.90,WNW,293,4.3,4.3,51,0.00,,,0.00,WUHU216HW,2013-07-07 14:00:00,
2013-07-07 10:05:00,83.7,64.4,29.89,West,270,2.7,4.5,52,0.00,,,0.00,WUHU216HW,2013-07-07 14:05:00,
2013-07-07 10:10:00,83.7,64.4,29.89,West,270,2.7,4.5,52,0.00,,,0.00,WUHU216HW,2013-07-07 14:10:00,
2013-07-07 10:59:00,84.4,64.4,29.90,West,270,4.7,4.7,51,0.00,,,0.00,WUHU216HW,2013-07-07 14:59:00,
2013-07-07 11:04:00,84.3,64.9,29.88,WSW,248,3.6,4.7,52,0.00,,,0.00,WUHU216HW,2013-07-07 15:04:00,
2013-07-07 11:10:00,84.3,64.9,29.88,WSW,248,3.6,4.7,52,0.00,,,0.00,WUHU216HW,2013-07-07 15:10:00,
2013-07-07 11:59:00,84.9,65.5,29.90,NNW,338,3.4,3.4,52,0.00,,,0.00,WUHU216HW,2013-07-07 15:59:00,
2013-07-07 12:04:00,85.3,65.3,29.89,WSW,248,4.3,5.1,51,0.00,,,0.00,WUHU216HW,2013-07-07 16:04:00,
2013-07-07 12:10:00,84.5,65.1,29.88,West,270,3.1,5.6,52,0.00,,,0.00,WUHU216HW,2013-07-07 16:10:00,
2013-07-07 12:15:00,84.2,64.3,29.88,West,270,3.6,6.9,51,0.00,,,0.00,WUHU216HW,2013-07-07 16:15:00,
2013-07-07 12:20:00,84.2,64.3,29.88,West,270,3.6,6.9,51,0.00,,,0.00,WUHU216HW,2013-07-07 16:20:00,
2013-07-07 13:00:00,86.3,65.0,29.89,WSW,248,3.4,3.4,49,0.00,,,0.00,WUHU216HW,2013-07-07 17:00:00,
2013-07-07 13:05:00,86.9,64.3,29.88,West,270,6.7,6.9,47,0.00,,,0.00,WUHU216HW,2013-07-07 17:05:00,
2013-07-07 13:10:00,87.1,64.5,29.87,WSW,248,3.4,6.9,47,0.00,,,0.00,WUHU216HW,2013-07-07 17:10:00,
2013-07-07 13:15:00,87.1,64.5,29.87,WSW,248,3.4,6.9,47,0.00,,,0.00,WUHU216HW,2013-07-07 17:15:00,
2013-07-07 14:00:00,91.5,65.2,29.87,West,270,2.5,2.5,42,0.00,,,0.00,WUHU216HW,2013-07-07 18:00:00,
2013-07-07 14:05:00,90.7,65.2,29.86,West,270,2.9,3.6,43,0.00,,,0.00,WUHU216HW,2013-07-07 18:05:00,
2013-07-07 14:10:00,90.7,65.2,29.86,West,270,2.9,3.6,43,0.00,,,0.00,WUHU216HW,2013-07-07 18:10:00,
2013-07-07 15:00:00,89.8,63.6,29.85,WSW,248,3.8,3.8,42,0.00,,,0.00,WUHU216HW,2013-07-07 19:00:00,
2013-07-07 15:05:00,90.2,64.0,29.85,West,270,4.9,4.9,42,0.00,,,0.00,WUHU216HW,2013-07-07 19:05:00,
2013-07-07 15:10:00,90.2,64.0,29.85,West,270,4.9,4.9,42,0.00,,,0.00,WUHU216HW,2013-07-07 19:10:00,
2013-07-07 16:00:00,91.9,64.8,29.84,SE,135,3.1,3.1,41,0.00,,,0.00,WUHU216HW,2013-07-07 20:00:00,
2013-07-07 16:05:00,91.5,64.5,29.84,ESE,113,4.7,4.7,41,0.00,,,0.00,WUHU216HW,2013-07-07 20:05:00,
2013-07-07 16:10:00,91.5,64.5,29.84,ESE,113,4.7,4.7,41,0.00,,,0.00,WUHU216HW,2013-07-07 20:10:00,
2013-07-07 17:00:00,79.2,65.8,29.83,SE,135,4.7,4.7,63,0.00,,,0.00,WUHU216HW,2013-07-07 21:00:00,
2013-07-07 17:05:00,79.0,65.1,29.83,ESE,113,6.3,6.3,62,0.00,,,0.00,WUHU216HW,2013-07-07 21:05:00,
2013-07-07 17:10:00,79.0,65.1,29.83,ESE,113,6.3,6.3,62,0.00,,,0.00,WUHU216HW,2013-07-07 21:10:00,
2013-07-07 18:00:00,75.8,65.9,29.83,SE,135,4.0,4.0,71,0.00,,,0.00,WUHU216HW,2013-07-07 22:00:00,
2013-07-07 18:05:00,75.8,65.5,29.83,ESE,113,2.9,4.0,70,0.00,,,0.00,WUHU216HW,2013-07-07 22:05:00,
2013-07-07 18:10:00,75.8,65.5,29.83,ESE,113,2.9,3.4,70,0.00,,,0.00,WUHU216HW,2013-07-07 22:10:00,
2013-07-07 19:00:00,72.1,64.3,29.82,SE,135,3.8,3.8,76,0.00,,,0.00,WUHU216HW,2013-07-07 23:00:00,
2013-07-07 19:05:00,72.1,64.3,29.82,SSE,158,2.7,3.8,76,0.00,,,0.00,WUHU216HW,2013-07-07 23:05:00,
2013-07-07 19:10:00,72.1,64.3,29.82,SSE,158,2.7,3.8,76,0.00,,,0.00,WUHU216HW,2013-07-07 23:10:00,
2013-07-07 20:00:00,74.1,64.3,29.83,NW,315,0.4,0.4,71,0.00,,,0.00,WUHU216HW,2013-07-08 00:00:00,
2013-07-07 20:05:00,74.3,64.5,29.82,NW,315,0.4,0.4,71,0.00,,,0.00,WUHU216HW,2013-07-08 00:05:00,
2013-07-07 20:10:00,74.3,64.5,29.82,NW,315,0.4,0.4,71,0.00,,,0.00,WUHU216HW,2013-07-08 00:10:00,
2013-07-07 21:00:00,75.0,64.3,29.83,East,90,0.0,0.0,69,0.00,,,0.00,WUHU216HW,2013-07-08 01:00:00,
2013-07-07 21:05:00,74.8,64.2,29.82,NNE,23,0.0,0.0,69,0.00,,,0.00,WUHU216HW,2013-07-08 01:05:00,
2013-07-07 21:10:00,75.0,64.3,29.82,NW,315,0.2,0.4,69,0.00,,,0.00,WUHU216HW,2013-07-08 01:10:00,
2013-07-07 21:15:00,75.0,64.3,29.81,WSW,248,0.0,0.7,69,0.00,,,0.00,WUHU216HW,2013-07-08 01:15:00,
2013-07-07 21:20:00,74.8,64.2,29.81,SE,135,0.4,0.9,69,0.00,,,0.00,WUHU216HW,2013-07-08 01:20:00,
2013-07-07 21:25:00,74.5,63.9,29.81,SE,135,0.0,0.9,69,0.00,,,0.00,WUHU216HW,2013-07-08 01:25:00,
2013-07-07 21:30:00,74.3,63.7,29.81,SE,135,0.0,0.4,69,0.00,,,0.00,WUHU216HW,2013-07-08 01:30:00,
2013-07-07 21:35:00,74.3,63.7,29.81,WSW,248,0.4,0.4,69,0.00,,,0.00,WUHU216HW,2013-07-08 01:35:00,
2013-07-07 21:40:00,74.5,64.3,29.81,West,270,1.8,1.8,70,0.00,,,0.00,WUHU216HW,2013-07-08 01:40:00,
2013-07-07 21:45:00,74.5,64.3,29.81,West,270,1.8,1.8,70,0.00,,,0.00,WUHU216HW,2013-07-08 01:45:00,
2013-07-07 23:00:00,71.6,63.8,29.84,SSE,158,1.1,1.1,76,0.00,,,0.00,WUHU216HW,2013-07-08 03:00:00,
2013-07-07 23:05:00,72.1,65.0,29.83,SE,135,3.4,3.4,78,0.00,,,0.00,WUHU216HW,2013-07-08 03:05:00,
2013-07-07 23:10:00,71.9,64.8,29.82,South,180,1.8,3.4,78,0.00,,,0.00,WUHU216HW,2013-07-08 03:10:00,
2013-07-07 23:15:00,71.9,64.8,29.82,SSE,158,0.7,3.4,78,0.00,,,0.00,WUHU216HW,2013-07-08 03:15:00,
2013-07-07 23:20:00,71.8,64.7,29.82,SSE,158,1.1,2.0,78,0.00,,,0.00,WUHU216HW,2013-07-08 03:20:00,
2013-07-07 23:25:00,71.8,64.7,29.82,SSE,158,1.1,1.3,78,0.00,,,0.00,WUHU216HW,2013-07-08 03:25:00,